Flag for Germany Weather past 2 weeks in Wesseling, North Rhine-Westphalia, Germany

Now
39 °F

Drizzle. Low clouds.


Feels Like: 36 °F
Forecast: 38 / 42 °F
Wind: 3 mph from South

Location: Koeln / Bonn

Current Time: Jan 26, 2015 at 6:02:55 PM

Latest Report: Jan 26, 2015 at 5:00 PM


Visibility: 2 mi

Pressure: 30.06 "Hg

Humidity: 99%

Dew point: 38 °F

Location of WesselingLocation

Historic Weather in Wesseling — Graph

°F

Wesseling temperature yesterday

Maximum temperature yesterday: 38 °F (at 2:00 PM)
Minimum temperature yesterday: 28 °F (at 4:00 AM)
Average temperature yesterday: 33 °F

Past Weeks' High & Low Weather Summary

 TemperatureHumidityPressure
High54 °F (Jan 13, 2:00 PM)100% (Jan 24, 12:00 PM)30.45 "Hg (Jan 24, 12:00 PM)
Low27 °F (Jan 21, 6:00 AM)56% (Jan 13, 1:00 PM)29.50 "Hg (Jan 15, 3:00 PM)
Average37 °F83%30.00 "Hg
* Reported Jan 11 5:00 PM — Jan 26 5:00 PM, Wesseling, Weather by CustomWeather, © 2014

Note: Actual official high and low records may vary slightly from our data, if they occured in-between our weather recording intervals... More about our weather records

Advertising

Wesseling weather history for previous 24 hours

 ConditionsComfort  
Time TempWeatherWind HumidityBarometerVisibility
5:00 PM
Jan 26
39 °FDrizzle. Low clouds.3 mph99%30.06 "Hg2 mi
4:00 PM38 °FRain. Low clouds.3 mph98%30.07 "Hg2 mi
3:00 PM38 °FRain. Low clouds.3 mph98%30.09 "Hg2 mi
2:00 PM38 °FDrizzle. Low clouds.5 mph97%30.11 "Hg2 mi
1:00 PM38 °FRain. Low clouds.5 mph97%30.14 "Hg6 mi
12:00 PM37 °FRain. Low clouds.5 mph98%30.17 "Hg3 mi
11:00 AM36 °FRain. Low clouds.5 mph98%30.20 "Hg1 mi
10:00 AM35 °FRain. Low clouds.3 mph98%30.21 "Hg4 mi
9:00 AM36 °FRain. Low clouds.3 mph96%30.22 "Hg7 mi
8:00 AM35 °FDrizzle. Low clouds.5 mph97%30.23 "Hg7 mi
7:00 AM35 °FLow clouds.3 mph97%30.25 "Hg6 mi
6:00 AM35 °FLight rain. Low clouds.3 mph98%30.26 "Hg5 mi
5:00 AM35 °FRain. Low clouds.3 mph98%30.28 "Hg4 mi
4:00 AM35 °FLight rain. Overcast.3 mph98%30.31 "Hg4 mi
3:00 AM35 °FLight rain. Overcast.3 mph97%30.33 "Hg7 mi
2:00 AM35 °FLight rain. Overcast.2 mph98%30.34 "Hg7 mi
1:00 AM35 °FLight rain. Overcast.2 mph97%30.36 "Hg7 mi
12:00 AM35 °FLight rain. Low clouds.2 mph98%30.38 "Hg9 mi
11:00 PM
Jan 25
35 °FLight rain. Low clouds.1 mph98%30.38 "Hg5 mi
10:00 PM35 °FLight rain. Overcast.2 mph99%30.40 "Hg4 mi
9:00 PM36 °FLight rain. Low clouds.2 mph99%30.40 "Hg3 mi
8:00 PM36 °FLight rain. Low clouds.2 mph99%30.41 "Hg2 mi
7:00 PM36 °FRain. Low clouds.1 mph99%30.42 "Hg2 mi
6:00 PM36 °FRain. Low clouds.1 mph98%30.42 "Hg2 mi
Weather by CustomWeather, © 2014

See weather overviewHow to use our weather pages